Simultaneous Nadir Overpasses (SNOs) Predictions

Prediction of SNOs between METOP-A and TERRA Satellite Orbit:

Table of predicted SNOs for the next 14.0 days since TLE Epoch: 3/2/2019
Index Date (METOP-A) Time (METOP-A) Lat,Lon (METOP-A) SZA (METOP-A ) Date (TERRA) Time (TERRA) Lat,Lon (TERRA) SZA (TERRA ) Distance(km) Time Diff (sec)
1 03/03/2019 18:31:11 81.45, -47.63 90.85 03/03/2019 18:31:33 81.45, -47.68 90.85 1.21 22
2 03/03/2019 19:21:51 -81.45, 119.81 89.16 03/03/2019 19:21:00 -81.45, 119.90 89.17 1.61 51
3 03/06/2019 14:05:26 81.45, 18.41 89.74 03/06/2019 14:05:56 81.45, 18.57 89.77 2.58 30
4 03/06/2019 14:56:05 -81.44,-173.72 90.22 03/06/2019 14:55:23 -81.45,-173.81 90.25 1.47 42
5 03/09/2019 09:39:40 81.45, 84.84 88.67 03/09/2019 09:40:21 81.45, 85.01 88.70 2.76 41
6 03/09/2019 10:30:19 -81.44,-107.26 91.29 03/09/2019 10:29:48 -81.45,-107.33 91.31 1.29 31
7 03/12/2019 05:13:53 81.45, 151.25 87.59 03/12/2019 05:14:48 81.44, 151.24 87.61 0.80 55
8 03/12/2019 06:04:33 -81.45, -41.21 92.41 03/12/2019 06:04:15 -81.44, -41.06 92.40 2.51 18
9 03/15/2019 00:48:07 81.45,-142.35 86.50 03/15/2019 00:49:18 81.44,-142.34 86.53 0.55 71
10 03/15/2019 01:38:47 -81.45, 25.22 93.49 03/15/2019 01:38:45 -81.45, 25.39 93.48 2.81 2




NCC Satellite Simultaneous Nadir Overpasses (SNOs) Prediction Service
